Flag for Belgium Weather past 2 weeks in Antwerp, Belgium

Now
68 °F

Scattered clouds.


Feels Like: 68 °F
Forecast: 56 / 68 °F
Wind: 9 mph from South

Location: Antwerp / Deurne

Current Time: May 4, 2015 at 5:13:27 PM

Latest Report: May 4, 2015 at 4:50 PM


Visibility: N/A

Pressure: 29.71 "Hg

Humidity: 46%

Dew point: 46 °F

Location of AntwerpLocation

Historic Weather in Antwerp — Graph

°F

Antwerp temperature yesterday

Maximum temperature yesterday: 64 °F (at 7:20 PM)
Minimum temperature yesterday: 48 °F (at 12:20 AM)
Average temperature yesterday: 56 °F

Past Weeks' High & Low Weather Summary

 TemperatureHumidityPressure
High72 °F (Apr 24, 2:50 PM)94% (Apr 26, 10:20 PM)30.48 "Hg (Apr 26, 10:20 PM)
Low36 °F (Apr 28, 5:50 AM)29% (Apr 24, 3:50 PM)29.53 "Hg (May 3, 3:50 PM)
Average52 °F66%29.97 "Hg
* Reported Apr 19 3:20 PM — May 4 3:50 PM, Antwerp, Weather by CustomWeather, © 2015

Note: Actual official high and low records may vary slightly from our data, if they occured in-between our weather recording intervals... More about our weather records

Advertising

Antwerp weather history for previous 24 hours

 ConditionsComfort  
Time TempWeatherWind HumidityBarometerVisibility
3:50 PM
Mon, May 4
66 °FScattered clouds.8 mph49%29.74 "HgN/A
3:20 PM66 °FScattered clouds.9 mph49%29.74 "HgN/A
2:50 PM66 °FScattered clouds.12 mph49%29.74 "HgN/A
2:20 PM66 °FPassing clouds.9 mph52%29.74 "HgN/A
1:50 PM66 °FPassing clouds.10 mph52%29.77 "HgN/A
1:20 PM64 °FPassing clouds.10 mph52%29.77 "HgN/A
12:50 PM64 °FPassing clouds.9 mph56%29.77 "HgN/A
12:20 PM64 °FScattered clouds.8 mph60%29.77 "HgN/A
11:50 AM61 °FScattered clouds.10 mph68%29.77 "HgN/A
11:20 AM61 °FScattered clouds.6 mph68%29.77 "HgN/A
10:50 AM61 °FScattered clouds.10 mph63%29.77 "HgN/A
10:20 AM59 °FScattered clouds.13 mph68%29.77 "HgN/A
9:50 AM59 °FScattered clouds.10 mph68%29.77 "HgN/A
9:20 AM59 °FPartly sunny.8 mph72%29.77 "HgN/A
8:50 AM57 °FPartly sunny.9 mph77%29.74 "HgN/A
8:20 AM55 °FPartly sunny.8 mph82%29.74 "HgN/A
7:50 AM55 °FPartly sunny.9 mph82%29.74 "HgN/A
7:20 AM55 °FPassing clouds.8 mph82%29.74 "HgN/A
6:50 AM54 °FPassing clouds.6 mph88%29.71 "HgN/A
6:20 AM54 °FClear.6 mph88%29.71 "Hg10 mi
5:50 AM55 °FOvercast.7 mph82%29.71 "HgN/A
5:20 AM55 °FPassing clouds.5 mph88%29.71 "HgN/A
4:50 AM55 °FPartly cloudy.5 mph88%29.71 "HgN/A
4:20 AM55 °FMostly cloudy.5 mph88%29.68 "HgN/A
3:50 AM55 °FPassing clouds.5 mph82%29.68 "HgN/A
3:20 AM55 °FPassing clouds.6 mph82%29.68 "HgN/A
2:50 AM55 °FPassing clouds.5 mph82%29.68 "HgN/A
2:20 AM55 °FPassing clouds.5 mph77%29.68 "HgN/A
1:50 AM55 °FClear.6 mph77%29.68 "Hg10 mi
1:20 AM55 °FClear.6 mph77%29.68 "Hg10 mi
12:50 AM57 °FClear.7 mph72%29.68 "Hg10 mi
12:20 AM57 °FPassing clouds.7 mph77%29.68 "HgN/A
11:50 PM
Sun, May 3
59 °FClear.9 mph72%29.65 "Hg10 mi
11:20 PM59 °FClear.9 mph72%29.65 "Hg10 mi
10:50 PM59 °FPassing clouds.7 mph72%29.65 "HgN/A
10:20 PM59 °FClear.13 mph77%29.65 "Hg10 mi
9:50 PM61 °FPassing clouds.13 mph72%29.62 "HgN/A
9:20 PM61 °FSunny.12 mph72%29.59 "Hg10 mi
8:50 PM63 °FSunny.9 mph73%29.59 "Hg10 mi
8:20 PM63 °FPassing clouds.10 mph73%29.56 "HgN/A
7:50 PM64 °FPartly sunny.9 mph73%29.56 "HgN/A
7:20 PM64 °FPartly sunny.8 mph78%29.56 "HgN/A
6:50 PM63 °FScattered clouds.7 mph83%29.53 "HgN/A
6:20 PM63 °FScattered clouds.9 mph88%29.53 "HgN/A
5:50 PM63 °FSprinkles. Partly sunny.12 mph83%29.53 "HgN/A
5:20 PM63 °FPartly sunny.10 mph83%29.53 "HgN/A
Weather by CustomWeather, © 2015

See weather overviewHow to use our weather pages